Regional Weather Roundup
Issued by NWS

Home | Current Version | Previous Version | Graphics & Text | Print | Product List | Glossary On
Versions: 1 2 3 4 5 6 7 8 9 10 11 12 13 14 15 16 17 18 19 20 21 22 23 24 25 26 27 28 29 30 31 32 33 34 35 36 37 38 39 40 41 42 43 44 45 46 47 48 49 50
637
ASUS45 KPSR 172010
RWRAZ

ARIZONA HOURLY REGIONAL WEATHER ROUNDUP
NATIONAL WEATHER SERVICE PHOENIX AZ
100 PM MST TUE JAN 17 2017

NOTE: FAIR INDICATES FEW OR NO CLOUDS BELOW 12,000 FEET WITH NO
SIGNIFICANT WEATHER AND/OR OBSTRUCTIONS TO VISIBILITY.

AZZ001>003-036-172100-
NORTHWEST ARIZONA

CITY           SKY/WX    TMP DP  RH WIND       PRES   REMARKS
BULLHEAD CITY  SUNNY     57  19  23 N26G36    30.12F
KINGMAN        SUNNY     49  19  30 NE12      30.13F
$$

AZZ004>008-015-016-018-172100-
NORTH CENTRAL ARIZONA

CITY           SKY/WX    TMP DP  RH WIND       PRES   REMARKS
GRAND CANYON   SUNNY     40  26  57 NE9       30.14F WCI  34
WILLIAMS       PTSUNNY   45  27  49 SE5       30.11S
PRESCOTT       PTSUNNY   47  32  56 N6        30.10F
FLAGSTAFF      CLOUDY    36  29  75 NE8       30.12F WCI  30
PAYSON         PTSUNNY   46  30  53 S3        30.12F
PAGE           PTSUNNY   44  21  40 N3        30.17F
$$

AZZ009>014-017-172100-
NORTHEAST ARIZONA

CITY           SKY/WX    TMP DP  RH WIND       PRES   REMARKS
WINSLOW        CLOUDY    45  35  68 VRB5      30.13F
SAINT JOHNS    MOSUNNY   47  34  60 N6        30.09F
SHOW LOW       PTSUNNY   41  32  70 CALM      30.11F
$$

AZZ023-172100-
GREATER PHOENIX AREA

CITY           SKY/WX    TMP DP  RH WIND       PRES   REMARKS
PHOENIX        CLOUDY    58  42  55 NW5       30.05F
BUCKEYE        PTSUNNY   55  41  58 CALM      30.08F
GLENDALE       PTSUNNY   57  45  62 CALM      30.08F
LUKE AFB       PTSUNNY   56  44  62 CALM      30.06F
DEER VALLEY    CLOUDY    57  42  57 W3        30.06F
SCOTTSDALE     CLOUDY    57  43  59 W5        30.07F
MESA-FALCON    MOSUNNY  N/A N/A N/A W12       30.03F
MESA-GATEWAY   PTSUNNY   57  43  58 W5        30.07F
CHANDLER       SUNNY     59  45  58 CALM      30.06F
$$

AZZ027-028-172100-
SOUTHWEST MARICOPA COUNTY AND PINAL COUNTY

CITY           SKY/WX    TMP DP  RH WIND       PRES   REMARKS
CASA GRANDE    MOSUNNY   58  44  60 W5        30.06F
$$

AZZ503-504-507>509-172100-
SOUTHEAST ARIZONA

CITY           SKY/WX    TMP DP  RH WIND       PRES   REMARKS
TUCSON         SUNNY     60  42  51 VRB3      30.04F
DAVIS-MONTHAN  SUNNY     59  41  50 VRB3      30.03F
RYAN FIELD     SUNNY     59  43  55 NE5       30.05
NOGALES        SUNNY     58  33  39 CALM      30.03F
SIERRA VISTA   SUNNY     55  34  45 E6        30.06F
DOUGLAS        MOSUNNY   54  38  54 VRB7      30.05F
SAFFORD        PTSUNNY   54  38  54 SE3       30.06F
$$

AZZ020-021-025-026-031-172100-
SOUTHWEST ARIZONA

CITY           SKY/WX    TMP DP  RH WIND       PRES   REMARKS
YUMA           MOSUNNY   65  26  23 N12       30.08F
$$

CAZ031-033-041-043-047-048-061-172100-
SOUTHERN CALIFORNIA

CITY           SKY/WX    TMP DP  RH WIND       PRES   REMARKS
DOWNTOWN L.A.  SUNNY     67  36  31 W6        30.08F
L.A. AIRPORT   MOSUNNY   64  35  34 CALM      30.09F
SAN DIEGO      SUNNY     63  49  60 W5        30.10F
BURBANK        SUNNY     62  32  32 W5        30.09F
ONTARIO        MOSUNNY   61  32  33 CALM      30.08F
RIVERSIDE      SUNNY     65  26  23 SE5       30.08F
PALM SPRINGS   SUNNY     67  25  20 CALM      30.10F
EL CENTRO NAS  MOSUNNY   65  31  28 N5        30.11F
IMPERIAL       SUNNY     64  33  31 NW7       30.10F
BLYTHE         SUNNY     63  22  20 N16       30.11F
NEEDLES        SUNNY     61  20  20 NE21G26   30.13F
$$

NVZ020-UTZ003-172100-
SOUTHERN NEVADA-UTAH

CITY           SKY/WX    TMP DP  RH WIND       PRES   REMARKS
LAS VEGAS      SUNNY     52  16  24 VRB3      30.16F
SALT LAKE CITY MOSUNNY   30  19  63 S5        30.26F WCI  25
$$

NMZ009-TXZ055-172100-
NEW MEXICO-WEST TEXAS

CITY           SKY/WX    TMP DP  RH WIND       PRES   REMARKS
ALBUQUERQUE    MOSUNNY   48  35  60 W5        30.12F
EL PASO        LGT RAIN  50  36  58 NE5       30.06F
$$


........................KEY........................
SKY/WX - SKY CONDITION/WEATHER
TMP    - TEMPERATURE IN FAHRENHEIT
DP     - DEW POINT IN FAHRENHEIT
RH     - RELATIVE HUMIDITY IN PERCENT
WIND   - DIRECTION AND SPEED IN MILES PER HOUR (MPH)
VRB    - VARIABLE WIND DIRECTION
PRES   - MEAN SEA LEVEL PRESSURE IN INCHES OF MERCURY
         F - FALLING PRESSURE   R - RISING PRESSURE
         S - STEADY PRESSURE
VSB    - VISIBILITY IN MILES
HX     - HEAT INDEX IN FAHRENHEIT
WCI    - WIND CHILL INDEX IN FAHRENHEIT
TC     - TEMPERATURE IN CELSIUS WHICH IS ALSO KNOWN AS
         TEMPERATURE IN CENTIGRADE
AFB    - AIR FORCE BASE
         LUKE AFB IS LUKE AIR FORCE BASE
         DAVIS-MONTHAN IS DAVIS-MONTHAN AIR FORCE BASE
NAS    - NAVAL AIR STATION
         EL CENTRO NAS IS EL CENTRO NAVAL AIR STATION
N/A    - NOT AVAILABLE





USA.gov is the U.S. government's official web portal to all federal, state and local government web resources and services.